Flag for Nicaragua Weather past 2 weeks in Managua, Nicaragua

Now
81 °F

Passing clouds.


Feels Like: 86 °F
Forecast: 77 / 93 °F
Wind: No wind

Location: Managua A. C. Sandino

Current Time: Aug 31, 2015 at 8:18:36 PM

Latest Report: Aug 31, 2015 at 8:00 PM


Visibility: N/A

Pressure: 29.89 "Hg

Humidity: 84%

Dew point: 75 °F

Location of ManaguaLocation

Historic Weather in Managua — Graph

°F

Managua temperature yesterday

Maximum temperature yesterday: 97 °F (at 2:00 PM)
Minimum temperature yesterday: 77 °F (at 3:00 AM)
Average temperature yesterday: 84 °F

Past Weeks' High & Low Weather Summary

 TemperatureHumidityPressure
High97 °F (Aug 18, 2:00 PM)94% (Aug 16, 8:00 PM)29.92 "Hg (Aug 16, 8:00 PM)
Low73 °F (Aug 25, 3:00 AM)39% (Aug 24, 1:00 PM)29.71 "Hg (Aug 24, 3:00 PM)
Average85 °F70%29.82 "Hg
* Reported Aug 16 7:00 PM — Aug 31 7:00 PM, Managua, Weather by CustomWeather, © 2015

Note: Actual official high and low records may vary slightly from our data, if they occured in-between our weather recording intervals... More about our weather records

Advertising

Managua weather history for previous 24 hours

 ConditionsComfort  
Time TempWeatherWind HumidityBarometerVisibility
7:00 PM
Mon, Aug 31
79 °FPassing clouds.5 mph89%29.86 "HgN/A
6:00 PM79 °FPassing clouds.9 mph84%29.80 "HgN/A
5:00 PM79 °FThundershowers. Scattered clouds.9 mph79%29.77 "Hg6 mi
4:00 PM79 °FThunderstorms. Scattered clouds.7 mph79%29.80 "Hg6 mi
3:00 PM97 °FPassing clouds.12 mph50%29.77 "HgN/A
2:00 PM97 °FPassing clouds.12 mph50%29.77 "HgN/A
1:00 PM97 °FPassing clouds.16 mph47%29.80 "HgN/A
12:00 PM95 °FPassing clouds.14 mph53%29.83 "HgN/A
11:00 AM90 °FPassing clouds.12 mph63%29.86 "HgN/A
10:00 AM88 °FPassing clouds.9 mph66%29.86 "HgN/A
9:00 AM88 °FScattered clouds.7 mph62%29.89 "HgN/A
8:00 AM84 °FScattered clouds.7 mph74%29.86 "HgN/A
7:00 AM81 °FScattered clouds.5 mph84%29.83 "Hg6 mi
6:00 AM77 °FScattered clouds.No wind94%29.83 "Hg4 mi
4:00 AM79 °FPassing clouds.No wind89%29.80 "HgN/A
3:00 AM79 °FPassing clouds.7 mph89%29.83 "HgN/A
2:00 AM79 °FPassing clouds.5 mph89%29.83 "HgN/A
1:00 AM79 °FPassing clouds.No wind89%29.86 "HgN/A
12:00 AM79 °FPassing clouds.5 mph89%29.86 "HgN/A
11:00 PM
Sun, Aug 30
79 °FPassing clouds.7 mph89%29.89 "HgN/A
10:00 PM79 °FPassing clouds.5 mph84%29.89 "HgN/A
9:00 PM79 °FPassing clouds.7 mph84%29.86 "HgN/A
8:00 PM77 °FPassing clouds.9 mph89%29.83 "HgN/A
Weather by CustomWeather, © 2015

See weather overviewHow to use our weather pages